EJU32DG LEPA-LSZH

Flight info

Callsign EJU32DG
Flight time 1h 42m
Altitude 36000
Route MEROS DCT LAPIT DCT CHELY DCT LUMAS DCT MAXIR DCT LUSOL DCT BODRU DCT OKTET DCT IRMAR DCT KINES DCT VANAS DCT MOBLO DCT LAMUR DCT KORED N871 BERSU
Aircraft A320/M-SDE2E3FGHIJ1RWXYZ/LB1

Departure

Time 2026-05-05 03:55
Airport Palma de Mallorca Airport (LEPA)

Arrival

Time 2026-05-05 05:38
Airport Zürich Airport (LSZH)
Time Latitude Longitude Altitude Speed Heading
2026-05-05 03:09 39.54844 2.73850 37 ft 0 kts 268°
2026-05-05 03:43 39.54845 2.73865 36 ft 2 kts 268°
2026-05-05 03:43 39.54845 2.73885 36 ft 2 kts 268°
2026-05-05 03:43 39.54843 2.73904 36 ft 2 kts 295°
2026-05-05 03:44 39.54834 2.73921 36 ft 2 kts 316°
2026-05-05 03:44 39.54822 2.73932 36 ft 2 kts 338°
2026-05-05 03:44 39.54808 2.73937 36 ft 2 kts 359°
2026-05-05 03:44 39.54793 2.73935 36 ft 2 kts 20°
2026-05-05 03:45 39.54779 2.73925 36 ft 2 kts 41°
2026-05-05 03:45 39.54773 2.73916 36 ft 0 kts 56°
2026-05-05 03:45 39.54769 2.73908 36 ft 0 kts 58°
2026-05-05 03:48 39.54776 2.73922 36 ft 3 kts 58°
2026-05-05 03:48 39.54792 2.73956 36 ft 6 kts 58°
2026-05-05 03:48 39.54832 2.73996 36 ft 9 kts
2026-05-05 03:49 39.54897 2.73966 36 ft 11 kts 328°
2026-05-05 03:49 39.54968 2.73905 36 ft 13 kts 326°
2026-05-05 03:49 39.55053 2.73835 35 ft 15 kts 330°
2026-05-05 03:49 39.55128 2.73779 34 ft 6 kts 333°
2026-05-05 03:50 39.55168 2.73790 34 ft 7 kts 52°
2026-05-05 03:50 39.55208 2.73825 33 ft 8 kts 340°
2026-05-05 03:50 39.55275 2.73773 32 ft 15 kts 329°
2026-05-05 03:50 39.55382 2.73688 28 ft 20 kts 328°
2026-05-05 03:51 39.55508 2.73587 25 ft 21 kts 327°
2026-05-05 03:51 39.55607 2.73510 22 ft 11 kts 331°
2026-05-05 03:51 39.55669 2.73536 21 ft 11 kts 65°
2026-05-05 03:51 39.55713 2.73629 21 ft 12 kts 57°
2026-05-05 03:52 39.55767 2.73743 20 ft 17 kts 59°
2026-05-05 03:52 39.55833 2.73882 20 ft 18 kts 58°
2026-05-05 03:52 39.55902 2.74027 19 ft 19 kts 58°
2026-05-05 03:52 39.55972 2.74174 18 ft 18 kts 60°
2026-05-05 03:53 39.56040 2.74319 18 ft 18 kts 58°
2026-05-05 03:53 39.56111 2.74443 17 ft 16 kts 25°
2026-05-05 03:53 39.56205 2.74417 17 ft 10 kts 329°
2026-05-05 03:53 39.56216 2.74408 17 ft 8 kts 328°
2026-05-05 03:54 39.56247 2.74364 17 ft 8 kts 290°
2026-05-05 03:54 39.56235 2.74287 17 ft 9 kts 240°
2026-05-05 03:54 39.56182 2.74174 17 ft 35 kts 238°
2026-05-05 03:55 39.55920 2.73620 19 ft 104 kts 239°
2026-05-05 03:55 39.55445 2.72610 13 ft 159 kts 239°
2026-05-05 03:55 39.54852 2.71329 485 ft 166 kts 239°
2026-05-05 03:55 39.54262 2.70040 1110 ft 170 kts 238°
2026-05-05 03:56 39.53639 2.68743 1819 ft 170 kts 236°
2026-05-05 03:56 39.52978 2.67417 2284 ft 185 kts 236°
2026-05-05 03:56 39.52252 2.65932 2735 ft 203 kts 237°
2026-05-05 03:56 39.51461 2.64298 3178 ft 223 kts 238°
2026-05-05 03:57 39.50651 2.62594 3962 ft 227 kts 238°
2026-05-05 03:57 39.49776 2.60925 4726 ft 231 kts 228°
2026-05-05 03:57 39.48495 2.59532 5208 ft 249 kts 211°
2026-05-05 03:57 39.46932 2.58359 5732 ft 265 kts 210°
2026-05-05 03:58 39.45343 2.57170 6565 ft 267 kts 210°
2026-05-05 03:58 39.43693 2.56018 7423 ft 269 kts 203°
2026-05-05 03:58 39.41891 2.55412 8234 ft 273 kts 184°
2026-05-05 03:58 39.40019 2.55835 9029 ft 280 kts 158°
2026-05-05 03:59 39.38452 2.57331 9769 ft 290 kts 133°
2026-05-05 03:59 39.37398 2.59597 10465 ft 299 kts 121°
2026-05-05 03:59 39.36314 2.61945 10869 ft 312 kts 129°
2026-05-05 03:59 39.34961 2.64147 11434 ft 318 kts 135°
2026-05-05 04:00 39.33436 2.66240 12090 ft 322 kts 139°
2026-05-05 04:00 39.31831 2.68283 12703 ft 328 kts 141°
2026-05-05 04:00 39.30186 2.70316 13317 ft 332 kts 141°
2026-05-05 04:00 39.28497 2.72413 13922 ft 339 kts 139°
2026-05-05 04:01 39.27177 2.74989 14485 ft 355 kts 113°
2026-05-05 04:01 39.26796 2.78201 15119 ft 364 kts 91°
2026-05-05 04:01 39.26891 2.81466 15716 ft 369 kts 90°
2026-05-05 04:01 39.26979 2.84775 16272 ft 373 kts 90°
2026-05-05 04:02 39.27066 2.88115 16855 ft 376 kts 90°
2026-05-05 04:02 39.27375 2.91499 17375 ft 383 kts 74°
2026-05-05 04:02 39.28447 2.94635 17905 ft 386 kts 59°
2026-05-05 04:02 39.29864 2.97578 18434 ft 389 kts 55°
2026-05-05 04:03 39.31335 3.00515 18941 ft 393 kts 56°
2026-05-05 04:03 39.32788 3.03510 19446 ft 397 kts 57°
2026-05-05 04:03 39.34203 3.06545 19978 ft 399 kts 58°
2026-05-05 04:03 39.35623 3.09672 20481 ft 402 kts 59°
2026-05-05 04:04 39.37026 3.12806 20957 ft 406 kts 59°
2026-05-05 04:04 39.38433 3.15966 21429 ft 410 kts 59°
2026-05-05 04:04 39.39856 3.19172 21892 ft 413 kts 59°
2026-05-05 04:04 39.41278 3.22376 22347 ft 416 kts 59°
2026-05-05 04:05 39.42726 3.25634 22791 ft 419 kts 59°
2026-05-05 04:05 39.44208 3.28898 23233 ft 423 kts 58°
2026-05-05 04:05 39.45708 3.32143 23663 ft 426 kts 58°
2026-05-05 04:05 39.46663 3.34204 23938 ft 428 kts 58°
2026-05-05 04:06 39.46739 3.34368 23959 ft 428 kts 58°
2026-05-05 04:06 39.48272 3.37685 24386 ft 431 kts 58°
2026-05-05 04:06 39.49814 3.41027 24815 ft 434 kts 58°
2026-05-05 04:06 39.51366 3.44400 25237 ft 436 kts 58°
2026-05-05 04:07 39.52916 3.47780 25644 ft 439 kts 58°
2026-05-05 04:07 39.54470 3.51171 26039 ft 442 kts 58°
2026-05-05 04:07 39.56028 3.54575 26429 ft 444 kts 58°
2026-05-05 04:07 39.57617 3.58053 26805 ft 447 kts 58°
2026-05-05 04:08 39.59188 3.61493 27181 ft 449 kts 58°
2026-05-05 04:08 39.60784 3.64991 27568 ft 452 kts 57°
2026-05-05 04:08 39.62386 3.68504 27917 ft 454 kts 58°
2026-05-05 04:08 39.63981 3.72009 28259 ft 456 kts 58°
2026-05-05 04:09 39.65602 3.75578 28606 ft 458 kts 58°
2026-05-05 04:09 39.67219 3.79140 28939 ft 460 kts 58°
2026-05-05 04:09 39.68848 3.82729 29253 ft 462 kts 58°
2026-05-05 04:09 39.70480 3.86331 29570 ft 464 kts 58°
2026-05-05 04:10 39.72111 3.89938 29869 ft 466 kts 58°
2026-05-05 04:10 39.73737 3.93534 30161 ft 469 kts 58°
2026-05-05 04:10 39.75388 3.97192 30467 ft 470 kts 58°
2026-05-05 04:10 39.77052 4.00885 30755 ft 472 kts 58°
2026-05-05 04:11 39.78702 4.04550 31036 ft 474 kts 58°
2026-05-05 04:11 39.80367 4.08249 31297 ft 476 kts 58°
2026-05-05 04:11 39.82038 4.11950 31551 ft 478 kts 56°
2026-05-05 04:11 39.84007 4.15479 31786 ft 477 kts 45°
2026-05-05 04:12 39.86343 4.18462 32045 ft 474 kts 35°
2026-05-05 04:12 39.89059 4.20921 32296 ft 469 kts 24°
2026-05-05 04:12 39.91952 4.22706 32526 ft 463 kts 14°
2026-05-05 04:12 39.95044 4.23868 32757 ft 456 kts
2026-05-05 04:13 39.98125 4.24607 32991 ft 456 kts
2026-05-05 04:13 40.01286 4.25285 33211 ft 458 kts
2026-05-05 04:13 40.04426 4.25962 33414 ft 460 kts
2026-05-05 04:13 40.07612 4.26670 33613 ft 462 kts
2026-05-05 04:14 40.10820 4.27402 33874 ft 463 kts
2026-05-05 04:14 40.14047 4.28153 34167 ft 462 kts
2026-05-05 04:14 40.17197 4.28892 34418 ft 461 kts
2026-05-05 04:14 40.20368 4.29637 34608 ft 462 kts
2026-05-05 04:15 40.23535 4.30382 34779 ft 463 kts
2026-05-05 04:15 40.26711 4.31132 34957 ft 464 kts
2026-05-05 04:15 40.29906 4.31888 35129 ft 464 kts
2026-05-05 04:15 40.33102 4.32644 35296 ft 465 kts
2026-05-05 04:16 40.36310 4.33405 35445 ft 466 kts
2026-05-05 04:16 40.39475 4.34155 35587 ft 467 kts
2026-05-05 04:16 40.42677 4.34914 35716 ft 468 kts
2026-05-05 04:16 40.45862 4.35672 35855 ft 468 kts
2026-05-05 04:17 40.52274 4.37198 35955 ft 470 kts
2026-05-05 04:17 40.58716 4.38736 35957 ft 471 kts
2026-05-05 04:18 40.65151 4.40276 35956 ft 471 kts
2026-05-05 04:18 40.71565 4.41814 35961 ft 471 kts
2026-05-05 04:19 40.78009 4.43364 35961 ft 470 kts
2026-05-05 04:19 40.84456 4.44914 35961 ft 470 kts
2026-05-05 04:20 40.90892 4.46467 35961 ft 471 kts
2026-05-05 04:20 40.97326 4.48026 35961 ft 471 kts
2026-05-05 04:21 41.03759 4.49588 35962 ft 471 kts
2026-05-05 04:21 41.10181 4.51151 35961 ft 472 kts
2026-05-05 04:22 41.16661 4.52729 35959 ft 473 kts
2026-05-05 04:22 41.23141 4.54311 35960 ft 474 kts
2026-05-05 04:23 41.29596 4.55889 35960 ft 473 kts
2026-05-05 04:23 41.36077 4.57476 35959 ft 473 kts
2026-05-05 04:24 41.42536 4.59062 35960 ft 474 kts
2026-05-05 04:25 41.52259 4.61456 35958 ft 474 kts
2026-05-05 04:25 41.58739 4.63055 35956 ft 474 kts
2026-05-05 04:26 41.65228 4.64683 35951 ft 475 kts
2026-05-05 04:26 41.71637 4.67028 35949 ft 482 kts 14°
2026-05-05 04:27 41.77860 4.70485 35950 ft 487 kts 22°
2026-05-05 04:27 41.83744 4.74912 35948 ft 490 kts 27°
2026-05-05 04:28 41.89585 4.79673 35947 ft 490 kts 27°
2026-05-05 04:28 41.95372 4.84380 35943 ft 489 kts 27°
2026-05-05 04:29 42.01194 4.89097 35941 ft 489 kts 27°
2026-05-05 04:29 42.07001 4.93806 35944 ft 489 kts 27°
2026-05-05 04:30 42.12860 4.98561 35948 ft 489 kts 27°
2026-05-05 04:30 42.18660 5.03281 35940 ft 489 kts 27°
2026-05-05 04:31 42.24471 5.08019 35934 ft 489 kts 27°
2026-05-05 04:31 42.30269 5.12756 35935 ft 489 kts 27°
2026-05-05 04:32 42.36070 5.17510 35940 ft 489 kts 27°
2026-05-05 04:32 42.41880 5.22276 35932 ft 489 kts 27°
2026-05-05 04:33 42.47670 5.27040 35927 ft 488 kts 27°
2026-05-05 04:33 42.53464 5.31817 35923 ft 489 kts 27°
2026-05-05 04:34 42.59258 5.36602 35918 ft 489 kts 27°
2026-05-05 04:34 42.65091 5.41432 35912 ft 488 kts 27°
2026-05-05 04:35 42.70870 5.46231 35906 ft 488 kts 27°
2026-05-05 04:35 42.76632 5.51020 35904 ft 488 kts 27°
2026-05-05 04:36 42.82425 5.55850 35909 ft 488 kts 27°
2026-05-05 04:36 42.88209 5.60683 35908 ft 488 kts 27°
2026-05-05 04:37 42.93991 5.65523 35905 ft 488 kts 28°
2026-05-05 04:37 42.99770 5.70372 35910 ft 487 kts 28°
2026-05-05 04:38 43.05519 5.75207 35915 ft 487 kts 28°
2026-05-05 04:38 43.11299 5.80080 35918 ft 488 kts 28°
2026-05-05 04:39 43.17106 5.84983 35924 ft 487 kts 28°
2026-05-05 04:39 43.22876 5.89871 35927 ft 487 kts 29°
2026-05-05 04:40 43.28635 5.94761 35926 ft 486 kts 29°
2026-05-05 04:40 43.34488 5.99496 35929 ft 484 kts 24°
2026-05-05 04:41 43.40728 6.02964 35929 ft 478 kts 13°
2026-05-05 04:41 43.47249 6.04880 35931 ft 473 kts
2026-05-05 04:42 43.53783 6.05595 35928 ft 472 kts 359°
2026-05-05 04:42 43.60319 6.06170 35929 ft 472 kts 359°
2026-05-05 04:43 43.66868 6.06809 35928 ft 473 kts
2026-05-05 04:43 43.73480 6.07947 35924 ft 476 kts
2026-05-05 04:44 43.79934 6.10297 35924 ft 479 kts 16°
2026-05-05 04:44 43.86071 6.13812 35934 ft 480 kts 24°
2026-05-05 04:45 43.92063 6.17938 35938 ft 480 kts 25°
2026-05-05 04:45 43.98032 6.22069 35932 ft 479 kts 24°
2026-05-05 04:46 44.04008 6.26174 35936 ft 479 kts 25°
2026-05-05 04:46 44.09972 6.30272 35938 ft 479 kts 25°
2026-05-05 04:47 44.15972 6.34398 35964 ft 479 kts 25°
2026-05-05 04:47 44.21917 6.38502 35970 ft 479 kts 25°
2026-05-05 04:48 44.27869 6.42614 35962 ft 479 kts 25°
2026-05-05 04:48 44.33837 6.46747 35978 ft 478 kts 25°
2026-05-05 04:49 44.39785 6.50877 35961 ft 478 kts 25°
2026-05-05 04:49 44.45751 6.55028 35963 ft 478 kts 25°
2026-05-05 04:50 44.51680 6.59164 35961 ft 478 kts 25°
2026-05-05 04:50 44.57614 6.63309 35962 ft 478 kts 26°
2026-05-05 04:51 44.63575 6.67484 35948 ft 477 kts 26°
2026-05-05 04:51 44.69479 6.71630 35960 ft 476 kts 26°
2026-05-05 04:52 44.75525 6.75483 35977 ft 476 kts 19°
2026-05-05 04:52 44.81915 6.77862 35969 ft 474 kts
2026-05-05 04:53 44.88477 6.78582 35955 ft 472 kts 357°
2026-05-05 04:53 44.94989 6.78180 35948 ft 472 kts 355°
2026-05-05 04:54 45.01539 6.77678 35953 ft 472 kts 355°
2026-05-05 04:54 45.08134 6.77216 35955 ft 472 kts 355°
2026-05-05 04:55 45.14744 6.76771 35949 ft 473 kts 355°
2026-05-05 04:55 45.21311 6.76332 35941 ft 472 kts 355°
2026-05-05 04:56 45.27847 6.75891 35941 ft 473 kts 355°
2026-05-05 04:56 45.34440 6.75448 35942 ft 474 kts 356°
2026-05-05 04:57 45.41043 6.75010 35956 ft 474 kts 355°
2026-05-05 04:57 45.47658 6.74563 35973 ft 474 kts 355°
2026-05-05 04:58 45.54283 6.74114 35979 ft 474 kts 355°
2026-05-05 04:58 45.60851 6.73661 35970 ft 475 kts 356°
2026-05-05 04:59 45.67446 6.73207 35965 ft 476 kts 356°
2026-05-05 04:59 45.74070 6.72872 35953 ft 476 kts
2026-05-05 05:00 45.80677 6.73800 35945 ft 478 kts 11°
2026-05-05 05:00 45.87074 6.76308 35949 ft 477 kts 21°
2026-05-05 05:01 45.93188 6.80105 35952 ft 477 kts 26°
2026-05-05 05:01 45.99201 6.84116 35960 ft 476 kts 26°
2026-05-05 05:02 46.05241 6.88118 35965 ft 477 kts 26°
2026-05-05 05:02 46.11232 6.92067 35962 ft 477 kts 26°
2026-05-05 05:03 46.17298 6.96067 35971 ft 477 kts 26°
2026-05-05 05:03 46.23310 7.00041 35999 ft 477 kts 26°
2026-05-05 05:04 46.29339 7.04035 35997 ft 477 kts 26°
2026-05-05 05:04 46.35367 7.08039 35989 ft 477 kts 26°
2026-05-05 05:05 46.41383 7.12045 35995 ft 477 kts 26°
2026-05-05 05:05 46.47439 7.16086 35987 ft 477 kts 26°
2026-05-05 05:06 46.53456 7.20111 35979 ft 476 kts 26°
2026-05-05 05:06 46.59451 7.24134 36000 ft 477 kts 25°
2026-05-05 05:07 46.65465 7.28174 35983 ft 477 kts 26°
2026-05-05 05:07 46.71509 7.32249 35975 ft 478 kts 26°
2026-05-05 05:08 46.77495 7.36304 35967 ft 476 kts 27°
2026-05-05 05:08 46.83202 7.41218 35926 ft 472 kts 37°
2026-05-05 05:08 46.85771 7.44137 35504 ft 473 kts 43°
2026-05-05 05:09 46.88189 7.47438 34522 ft 481 kts 49°
2026-05-05 05:09 46.90414 7.51103 33436 ft 485 kts 54°
2026-05-05 05:09 46.92501 7.54946 32603 ft 484 kts 55°
2026-05-05 05:09 46.94546 7.58802 32058 ft 478 kts 55°
2026-05-05 05:10 46.96553 7.62565 31548 ft 471 kts 54°
2026-05-05 05:10 46.98589 7.66350 30953 ft 467 kts 54°
2026-05-05 05:10 47.00571 7.70019 30365 ft 463 kts 54°
2026-05-05 05:10 47.02564 7.73701 29786 ft 458 kts 54°
2026-05-05 05:11 47.04532 7.77348 29202 ft 454 kts 54°
2026-05-05 05:11 47.06458 7.80915 28638 ft 450 kts 54°
2026-05-05 05:11 47.08395 7.84508 28097 ft 445 kts 54°
2026-05-05 05:11 47.10279 7.88020 27517 ft 441 kts 54°
2026-05-05 05:12 47.12160 7.91596 26894 ft 437 kts 57°
2026-05-05 05:12 47.13803 7.95275 26303 ft 431 kts 62°
2026-05-05 05:12 47.15212 7.99171 25701 ft 426 kts 67°
2026-05-05 05:12 47.16462 8.03063 25137 ft 422 kts 68°
2026-05-05 05:13 47.17679 8.06938 24566 ft 419 kts 68°
2026-05-05 05:13 47.18897 8.10800 23946 ft 417 kts 68°
2026-05-05 05:13 47.20108 8.14636 23412 ft 414 kts 68°
2026-05-05 05:13 47.21579 8.18266 22862 ft 415 kts 50°
2026-05-05 05:14 47.23851 8.20869 22381 ft 414 kts 26°
2026-05-05 05:14 47.26568 8.21952 21925 ft 408 kts
2026-05-05 05:14 47.29327 8.21423 21373 ft 400 kts 338°
2026-05-05 05:14 47.31762 8.19502 20771 ft 394 kts 322°
2026-05-05 05:15 47.33975 8.17204 20226 ft 392 kts 322°
2026-05-05 05:15 47.36287 8.15009 19690 ft 392 kts 326°
2026-05-05 05:15 47.38629 8.13056 19188 ft 390 kts 329°
2026-05-05 05:15 47.41041 8.11194 18700 ft 388 kts 330°
2026-05-05 05:16 47.43480 8.09565 18199 ft 387 kts 342°
2026-05-05 05:16 47.46146 8.09225 17667 ft 388 kts
2026-05-05 05:16 47.48638 8.10515 17204 ft 381 kts 34°
2026-05-05 05:16 47.50503 8.13169 16783 ft 369 kts 60°
2026-05-05 05:17 47.51548 8.16523 16379 ft 360 kts 71°
2026-05-05 05:17 47.52737 8.19801 15877 ft 365 kts 52°
2026-05-05 05:17 47.54748 8.22071 15416 ft 368 kts 25°
2026-05-05 05:17 47.57222 8.22830 14976 ft 367 kts 358°
2026-05-05 05:18 47.59667 8.21949 14511 ft 363 kts 331°
2026-05-05 05:18 47.61606 8.19664 14043 ft 357 kts 310°
2026-05-05 05:18 47.63274 8.16996 13559 ft 357 kts 318°
2026-05-05 05:18 47.65374 8.15063 13064 ft 357 kts 339°
2026-05-05 05:19 47.67767 8.14338 12578 ft 354 kts
2026-05-05 05:19 47.70156 8.14942 12085 ft 349 kts 23°
2026-05-05 05:19 47.72137 8.16902 11596 ft 340 kts 50°
2026-05-05 05:19 47.73231 8.19888 11188 ft 330 kts 78°
2026-05-05 05:20 47.73242 8.23215 10764 ft 321 kts 106°
2026-05-05 05:20 47.72180 8.26048 10346 ft 313 kts 135°
2026-05-05 05:20 47.70364 8.27663 9977 ft 308 kts 165°
2026-05-05 05:20 47.68238 8.27952 9623 ft 303 kts 177°
2026-05-05 05:21 47.66198 8.28413 9227 ft 294 kts 157°
2026-05-05 05:21 47.64528 8.30000 8694 ft 283 kts 134°
2026-05-05 05:21 47.63253 8.32158 8157 ft 274 kts 129°
2026-05-05 05:21 47.62033 8.34251 7668 ft 265 kts 131°
2026-05-05 05:22 47.60784 8.36192 7194 ft 257 kts 134°
2026-05-05 05:22 47.59530 8.38013 6734 ft 249 kts 135°
2026-05-05 05:22 47.58285 8.39762 6314 ft 243 kts 135°
2026-05-05 05:22 47.57096 8.41413 5805 ft 233 kts 136°
2026-05-05 05:23 47.55920 8.43030 5014 ft 235 kts 136°
2026-05-05 05:23 47.54710 8.44679 4246 ft 235 kts 136°
2026-05-05 05:23 47.53536 8.46278 3613 ft 227 kts 136°
2026-05-05 05:23 47.52404 8.47846 2995 ft 224 kts 135°
2026-05-05 05:24 47.51278 8.49363 2560 ft 216 kts 142°
2026-05-05 05:24 47.50237 8.50842 2204 ft 203 kts 143°
2026-05-05 05:24 47.49214 8.52219 1809 ft 191 kts 144°
2026-05-05 05:24 47.48276 8.53519 1520 ft 174 kts 137°
2026-05-05 05:25 47.47418 8.54714 1915 ft 179 kts 140°
2026-05-05 05:25 47.46421 8.55942 2627 ft 196 kts 142°
2026-05-05 05:25 47.45349 8.57195 3458 ft 199 kts 139°
2026-05-05 05:25 47.44343 8.58535 4253 ft 199 kts 134°
2026-05-05 05:26 47.43466 8.60109 4992 ft 201 kts 118°
2026-05-05 05:26 47.42882 8.61982 5675 ft 206 kts 110°
2026-05-05 05:26 47.42628 8.64107 5955 ft 220 kts 85°
2026-05-05 05:26 47.42974 8.66316 5876 ft 223 kts 69°
2026-05-05 05:27 47.43792 8.68243 5912 ft 226 kts 41°
2026-05-05 05:27 47.45132 8.69469 5944 ft 227 kts 27°
2026-05-05 05:27 47.48132 8.70697 5940 ft 229 kts 349°
2026-05-05 05:28 47.49585 8.69784 5958 ft 231 kts 329°
2026-05-05 05:28 47.50921 8.68423 5958 ft 231 kts 325°
2026-05-05 05:28 47.52199 8.67010 5819 ft 228 kts 324°
2026-05-05 05:28 47.53462 8.65588 5507 ft 229 kts 324°
2026-05-05 05:29 47.54722 8.64159 5266 ft 226 kts 324°
2026-05-05 05:29 47.55951 8.62760 5121 ft 219 kts 323°
2026-05-05 05:29 47.57148 8.61394 4970 ft 212 kts 324°
2026-05-05 05:29 47.58298 8.60083 4796 ft 206 kts 324°
2026-05-05 05:30 47.59422 8.58802 4638 ft 198 kts 324°
2026-05-05 05:30 47.60446 8.57562 4505 ft 187 kts 318°
2026-05-05 05:30 47.61335 8.56215 4314 ft 179 kts 314°
2026-05-05 05:30 47.62160 8.54894 4150 ft 170 kts 314°
2026-05-05 05:31 47.62940 8.53632 3984 ft 161 kts 314°
2026-05-05 05:31 47.63669 8.52444 3964 ft 155 kts 311°
2026-05-05 05:31 47.64122 8.51009 3961 ft 157 kts 276°
2026-05-05 05:31 47.64095 8.49381 3992 ft 158 kts 266°
2026-05-05 05:32 47.63970 8.47753 3981 ft 158 kts 264°
2026-05-05 05:32 47.63802 8.46137 3980 ft 159 kts 255°
2026-05-05 05:32 47.63403 8.44630 3982 ft 159 kts 246°
2026-05-05 05:32 47.62917 8.43153 3986 ft 159 kts 243°
2026-05-05 05:33 47.62331 8.41754 3989 ft 158 kts 235°
2026-05-05 05:33 47.61688 8.40442 3981 ft 158 kts 227°
2026-05-05 05:33 47.60757 8.39658 3977 ft 156 kts 187°
2026-05-05 05:33 47.59668 8.39625 4004 ft 156 kts 176°
2026-05-05 05:34 47.58606 8.39930 3993 ft 155 kts 154°
2026-05-05 05:34 47.57681 8.40761 3910 ft 156 kts 142°
2026-05-05 05:34 47.56853 8.41789 3707 ft 155 kts 136°
2026-05-05 05:34 47.56074 8.42882 3499 ft 154 kts 136°
2026-05-05 05:35 47.55276 8.43933 3327 ft 154 kts 137°
2026-05-05 05:35 47.54481 8.45003 3158 ft 154 kts 136°
2026-05-05 05:35 47.53708 8.46090 2927 ft 152 kts 135°
2026-05-05 05:35 47.52939 8.47156 2689 ft 147 kts 136°
2026-05-05 05:36 47.52218 8.48140 2480 ft 139 kts 137°
2026-05-05 05:36 47.51516 8.49104 2288 ft 138 kts 137°
2026-05-05 05:36 47.50805 8.50070 2086 ft 137 kts 137°
2026-05-05 05:36 47.50109 8.51038 1920 ft 137 kts 138°
2026-05-05 05:37 47.49402 8.51983 1720 ft 137 kts 138°
2026-05-05 05:37 47.48713 8.52925 1551 ft 136 kts 137°
2026-05-05 05:37 47.48022 8.53869 1413 ft 133 kts 138°
2026-05-05 05:37 47.47407 8.54698 1386 ft 97 kts 136°
2026-05-05 05:38 47.47017 8.55233 1388 ft 65 kts 138°
2026-05-05 05:38 47.46799 8.55527 1391 ft 29 kts 142°
2026-05-05 05:38 47.46636 8.55666 1393 ft 24 kts 163°
2026-05-05 05:38 47.46481 8.55717 1395 ft 14 kts 166°
2026-05-05 05:39 47.46400 8.55745 1397 ft 2 kts 158°
2026-05-05 05:39 47.46399 8.55747 1397 ft 0 kts 156°
2026-05-05 05:39 47.46375 8.55769 1397 ft 7 kts 143°
2026-05-05 05:39 47.46323 8.55838 1399 ft 10 kts 138°
2026-05-05 05:40 47.46272 8.55906 1400 ft 9 kts 138°
2026-05-05 05:40 47.46222 8.55974 1402 ft 9 kts 137°
2026-05-05 05:40 47.46159 8.56001 1403 ft 10 kts 186°
2026-05-05 05:40 47.46084 8.55989 1403 ft 11 kts 186°
2026-05-05 05:41 47.46006 8.55977 1404 ft 11 kts 187°
2026-05-05 05:41 47.45926 8.55948 1404 ft 12 kts 200°
2026-05-05 05:41 47.45842 8.55901 1404 ft 13 kts 201°
2026-05-05 05:41 47.45750 8.55871 1404 ft 13 kts 185°
2026-05-05 05:42 47.45657 8.55852 1404 ft 11 kts 214°
2026-05-05 05:42 47.45646 8.55727 1403 ft 14 kts 277°
2026-05-05 05:42 47.45658 8.55568 1400 ft 16 kts 276°
2026-05-05 05:42 47.45668 8.55400 1397 ft 15 kts 275°
2026-05-05 05:43 47.45639 8.55338 1397 ft 8 kts 184°
2026-05-05 05:43 47.45582 8.55365 1397 ft 8 kts 154°
2026-05-05 05:43 47.45522 8.55408 1398 ft 9 kts 155°
2026-05-05 05:43 47.45458 8.55452 1398 ft 10 kts 155°
2026-05-05 05:44 47.45385 8.55501 1398 ft 11 kts 156°
2026-05-05 05:44 47.45307 8.55555 1399 ft 13 kts 155°
2026-05-05 05:44 47.45217 8.55591 1399 ft 14 kts 156°
2026-05-05 05:44 47.45123 8.55656 1398 ft 15 kts 155°
2026-05-05 05:45 47.45032 8.55719 1399 ft 13 kts 156°
2026-05-05 05:45 47.44967 8.55771 1399 ft 5 kts 134°
2026-05-05 05:45 47.44952 8.55813 1399 ft 4 kts 103°
2026-05-05 05:45 47.44962 8.55840 1400 ft 3 kts 30°
2026-05-05 05:46 47.44978 8.55847 1400 ft 1 kts
2026-05-05 05:46 47.44998 8.55851 1400 ft 4 kts
2026-05-05 05:46 47.45025 8.55855 1401 ft 3 kts
2026-05-05 05:46 47.45042 8.55858 1402 ft 0 kts
2026-05-05 05:47 47.45044 8.55858 1402 ft 0 kts